| time (UTC) | temp F | wind direction | speed knots | gust knots | rain 1hr in | rain 24hr in | rain mn in | humidity % | barometer mb |
| 20260902120508 | 72 | 232 | 0.9 | 1.7 | 0.00 | 0.00 | 0.00 | 85 | 1012.3 |
| 20260902120009 | 72 | 291 | 0.9 | 2.6 | 0.00 | 0.00 | 0.00 | 85 | 1012.3 |
| 20260902115508 | 72 | 26 | 0.9 | 2.6 | 0.00 | 0.00 | 0.00 | 85 | 1012.1 |
| 20260902115008 | 72 | 178 | 0.9 | 6.1 | 0.00 | 0.00 | 0.00 | 85 | 1012.1 |
| 20260902114509 | 72 | 61 | 3.5 | 6.1 | 0.00 | 0.00 | 0.00 | 85 | 1011.9 |
| 20260902114007 | 72 | 232 | 1.7 | 4.3 | 0.00 | 0.00 | 0.00 | 85 | 1012.2 |
| 20260902113008 | 73 | 26 | 1.7 | 5.2 | 0.00 | 0.00 | 0.00 | 86 | 1012.0 |
| 20260902111508 | 73 | 128 | 1.7 | 4.3 | 0.00 | 0.00 | 0.00 | 86 | 1012.0 |
| 20260902111007 | 73 | 254 | 1.7 | 4.3 | 0.00 | 0.00 | 0.00 | 86 | 1012.1 |
| 20260902110507 | 73 | 265 | 1.7 | 7.8 | 0.00 | 0.00 | 0.00 | 86 | 1012.2 |
| 20260902110008 | 73 | 16 | 5.2 | 7.8 | 0.00 | 0.00 | 0.00 | 87 | 1012.2 |
| 20260902105007 | 72 | 93 | 3.5 | 7.0 | 0.00 | 0.00 | 0.00 | 87 | 1012.3 |
| 20260902104007 | 72 | 0 | 0.0 | 2.6 | 0.00 | 0.00 | 0.00 | 86 | 1012.2 |
| 20260902103507 | 72 | 291 | 0.0 | 1.7 | 0.00 | 0.00 | 0.00 | 86 | 1012.2 |
| 20260902103009 | 72 | 9 | 0.0 | 2.6 | 0.00 | 0.00 | 0.00 | 86 | 1012.2 |
| 20260902102506 | 72 | 265 | 0.0 | 2.6 | 0.00 | 0.00 | 0.00 | 86 | 1012.1 |
| 20260902101506 | 72 | 205 | 0.9 | 2.6 | 0.00 | 0.00 | 0.00 | 85 | 1012.2 |
| 20260902100506 | 73 | 265 | 0.9 | 2.6 | 0.00 | 0.00 | 0.00 | 84 | 1012.4 |
| 20260902100005 | 73 | 93 | 0.9 | 3.5 | 0.00 | 0.00 | 0.00 | 84 | 1012.4 |
| 20260902095507 | 73 | 210 | 0.9 | 3.5 | 0.00 | 0.00 | 0.00 | 84 | 1012.4 |
| 20260902094506 | 73 | 51 | 0.0 | 1.7 | 0.00 | 0.00 | 0.00 | 82 | 1012.4 |
| 20260902094006 | 73 | 9 | 0.9 | 4.3 | 0.00 | 0.00 | 0.00 | 82 | 1012.5 |
| 20260902093506 | 74 | 178 | 1.7 | 4.3 | 0.00 | 0.00 | 0.00 | 81 | 1012.4 |
| 20260902093005 | 74 | 165 | 1.7 | 4.3 | 0.00 | 0.00 | 0.00 | 80 | 1012.5 |
| 20260902091508 | 74 | 111 | 0.9 | 3.5 | 0.00 | 0.00 | 0.00 | 77 | 1012.6 |
| 20260902090506 | 75 | 325 | 0.9 | 1.7 | 0.00 | 0.00 | 0.00 | 76 | 1012.6 |
| 20260902085505 | 76 | 9 | 0.0 | 1.7 | 0.00 | 0.00 | 0.00 | 74 | 1012.5 |
| 20260902085005 | 76 | 119 | 0.9 | 1.7 | 0.00 | 0.00 | 0.00 | 74 | 1012.5 |
| 20260902084506 | 76 | 41 | 0.0 | 1.7 | 0.00 | 0.00 | 0.00 | 74 | 1012.4 |
| 20260902084006 | 76 | 51 | 0.9 | 3.5 | 0.00 | 0.00 | 0.00 | 73 | 1012.6 |
| 20260902083506 | 76 | 165 | 0.9 | 3.5 | 0.00 | 0.00 | 0.00 | 73 | 1012.7 |
| 20260902083005 | 76 | 34 | 0.9 | 6.1 | 0.00 | 0.00 | 0.00 | 73 | 1012.7 |
| 20260902082005 | 76 | 209 | 1.7 | 7.8 | 0.00 | 0.00 | 0.00 | 72 | 1012.8 |
| 20260902081505 | 77 | 178 | 0.9 | 2.6 | 0.00 | 0.00 | 0.00 | 71 | 1012.6 |
| 20260902081005 | 77 | 230 | 1.7 | 4.3 | 0.00 | 0.00 | 0.00 | 71 | 1012.6 |
| 20260902080505 | 77 | 13 | 1.7 | 10.4 | 0.00 | 0.00 | 0.00 | 70 | 1012.7 |
| 20260902080004 | 77 | 43 | 6.1 | 10.4 | 0.00 | 0.00 | 0.00 | 70 | 1012.9 |
| 20260902075504 | 77 | 34 | 2.6 | 7.0 | 0.00 | 0.00 | 0.00 | 70 | 1012.8 |
| 20260902074504 | 78 | 338 | 5.2 | 9.6 | 0.00 | 0.00 | 0.00 | 66 | 1012.9 |
| 20260902074004 | 79 | 319 | 0.9 | 3.5 | 0.00 | 0.00 | 0.00 | 64 | 1012.4 |
| 20260902073504 | 79 | 232 | 0.9 | 4.3 | 0.00 | 0.00 | 0.00 | 63 | 1011.9 |
| 20260902073005 | 79 | 146 | 1.7 | 4.3 | 0.00 | 0.00 | 0.00 | 62 | 1011.9 |
| 20260902072503 | 79 | 178 | 0.9 | 5.2 | 0.00 | 0.00 | 0.00 | 62 | 1011.8 |
| 20260902072004 | 79 | 200 | 2.6 | 6.1 | 0.00 | 0.00 | 0.00 | 61 | 1011.7 |
| 20260902071504 | 80 | 142 | 3.5 | 6.1 | 0.00 | 0.00 | 0.00 | 61 | 1011.8 |
| 20260902071004 | 80 | 140 | 1.7 | 5.2 | 0.00 | 0.00 | 0.00 | 60 | 1011.8 |
| 20260902070503 | 80 | 212 | 2.6 | 7.0 | 0.00 | 0.00 | 0.00 | 60 | 1011.8 |
| 20260902070004 | 80 | 202 | 2.6 | 7.0 | 0.00 | 0.00 | 0.00 | 60 | 1011.8 |
| 20260902065504 | 80 | 171 | 3.5 | 7.0 | 0.00 | 0.00 | 0.00 | 60 | 1011.8 |
| 20260902065003 | 80 | 219 | 3.5 | 7.0 | 0.00 | 0.00 | 0.00 | 60 | 1011.8 |
| 20260902064503 | 80 | 207 | 3.5 | 7.0 | 0.00 | 0.00 | 0.00 | 60 | 1011.8 |
| 20260902064002 | 81 | 201 | 3.5 | 7.0 | 0.00 | 0.00 | 0.00 | 59 | 1011.8 |
| 20260902063503 | 81 | 232 | 1.7 | 7.0 | 0.00 | 0.00 | 0.00 | 59 | 1011.8 |
| 20260902062502 | 81 | 234 | 1.7 | 7.0 | 0.00 | 0.00 | 0.00 | 59 | 1011.7 |
| 20260902060502 | 81 | 190 | 3.5 | 7.8 | 0.00 | 0.00 | 0.00 | 59 | 1011.4 |
| 20260902060002 | 81 | 137 | 3.5 | 7.8 | 0.00 | 0.00 | 0.00 | 59 | 1011.2 |
| 20260902055504 | 81 | 137 | 3.5 | 7.8 | 0.00 | 0.00 | 0.00 | 59 | 1011.2 |
| 20260902055002 | 81 | 150 | 2.6 | 8.7 | 0.00 | 0.00 | 0.00 | 60 | 1011.2 |
| 20260902053957 | 82 | 102 | 3.5 | 6.1 | 0.00 | 0.00 | 0.00 | 60 | 1011.2 |
| 20260902053457 | 81 | 157 | 3.5 | 6.1 | 0.00 | 0.00 | 0.00 | 60 | 1011.4 |
| 20260902051957 | 81 | 162 | 1.7 | 6.1 | 0.00 | 0.00 | 0.00 | 62 | 1011.5 |
| 20260902051456 | 81 | 163 | 1.7 | 5.2 | 0.00 | 0.00 | 0.00 | 63 | 1011.6 |
| 20260902050456 | 81 | 193 | 1.7 | 3.5 | 0.00 | 0.00 | 0.00 | 63 | 1011.6 |
| 20260902045956 | 81 | 142 | 1.7 | 3.5 | 0.00 | 0.00 | 0.00 | 64 | 1011.6 |
| 20260902045455 | 81 | 123 | 0.9 | 3.5 | 0.00 | 0.00 | 0.00 | 64 | 1011.6 |
| 20260902043955 | 82 | 144 | 1.7 | 4.3 | 0.00 | 0.00 | 0.00 | 63 | 1011.5 |
| 20260902043455 | 82 | 119 | 1.7 | 4.3 | 0.00 | 0.00 | 0.00 | 64 | 1011.6 |
| 20260902042955 | 82 | 126 | 2.6 | 4.3 | 0.00 | 0.00 | 0.00 | 63 | 1011.7 |
| 20260902042455 | 82 | 140 | 1.7 | 4.3 | 0.00 | 0.00 | 0.00 | 63 | 1011.6 |
| 20260902041955 | 83 | 168 | 1.7 | 4.3 | 0.00 | 0.00 | 0.00 | 63 | 1011.5 |
| 20260902041454 | 83 | 178 | 2.6 | 4.3 | 0.00 | 0.00 | 0.00 | 63 | 1011.5 |
| 20260902040454 | 83 | 115 | 2.6 | 7.0 | 0.00 | 0.00 | 0.00 | 63 | 1011.6 |
| 20260902035954 | 83 | 137 | 3.5 | 7.0 | 0.00 | 0.00 | 0.00 | 63 | 1011.5 |
| 20260902035453 | 83 | 153 | 2.6 | 5.2 | 0.00 | 0.00 | 0.00 | 64 | 1011.6 |
| 20260902034955 | 83 | 150 | 1.7 | 5.2 | 0.00 | 0.00 | 0.00 | 65 | 1011.6 |
| 20260902034453 | 83 | 169 | 1.7 | 4.3 | 0.00 | 0.00 | 0.00 | 65 | 1011.7 |
| 20260902033453 | 82 | 165 | 1.7 | 4.3 | 0.00 | 0.00 | 0.00 | 67 | 1011.6 |
| 20260902032953 | 82 | 170 | 1.7 | 4.3 | 0.00 | 0.00 | 0.00 | 67 | 1011.6 |
| 20260902032453 | 83 | 121 | 1.7 | 3.5 | 0.00 | 0.00 | 0.00 | 68 | 1011.6 |
| 20260902031950 | 83 | 153 | 1.7 | 3.5 | 0.00 | 0.00 | 0.00 | 67 | 1011.6 |
| 20260902031450 | 83 | 115 | 1.7 | 2.6 | 0.00 | 0.00 | 0.00 | 66 | 1011.5 |
| 20260902030950 | 83 | 193 | 0.9 | 3.5 | 0.00 | 0.00 | 0.00 | 65 | 1011.5 |
| 20260902025945 | 84 | 149 | 0.9 | 3.5 | 0.00 | 0.00 | 0.00 | 64 | 1011.4 |
| 20260902025444 | 84 | 137 | 2.6 | 3.5 | 0.00 | 0.00 | 0.00 | 64 | 1011.4 |
| 20260902024945 | 84 | 119 | 1.7 | 3.5 | 0.00 | 0.00 | 0.00 | 64 | 1011.5 |
| 20260902023944 | 85 | 153 | 0.9 | 2.6 | 0.00 | 0.00 | 0.00 | 63 | 1011.3 |
| 20260902023443 | 85 | 93 | 0.9 | 2.6 | 0.00 | 0.00 | 0.00 | 63 | 1011.2 |
| 20260902022938 | 85 | 158 | 1.7 | 3.5 | 0.00 | 0.00 | 0.00 | 63 | 1011.2 |
| 20260902022437 | 85 | 113 | 1.7 | 3.5 | 0.00 | 0.00 | 0.00 | 63 | 1011.1 |
| 20260902021938 | 85 | 146 | 1.7 | 4.3 | 0.00 | 0.00 | 0.00 | 63 | 1011.1 |
| 20260902021438 | 85 | 137 | 2.6 | 4.3 | 0.00 | 0.00 | 0.00 | 63 | 1011.0 |
| 20260902020437 | 86 | 119 | 1.7 | 3.5 | 0.00 | 0.00 | 0.00 | 62 | 1010.9 |
| 20260902015937 | 86 | 119 | 1.7 | 2.6 | 0.00 | 0.00 | 0.00 | 61 | 1010.9 |
| 20260902015439 | 86 | 178 | 1.7 | 3.5 | 0.00 | 0.00 | 0.00 | 61 | 1010.8 |
| 20260902014436 | 87 | 168 | 1.7 | 3.5 | 0.00 | 0.00 | 0.00 | 60 | 1010.5 |
| 20260902013936 | 87 | 123 | 1.7 | 2.6 | 0.00 | 0.00 | 0.00 | 59 | 1010.5 |
| 20260902013435 | 87 | 142 | 1.7 | 2.6 | 0.00 | 0.00 | 0.00 | 58 | 1010.6 |
| 20260902012935 | 87 | 123 | 1.7 | 2.6 | 0.00 | 0.00 | 0.00 | 58 | 1010.5 |
| 20260902012436 | 88 | 119 | 1.7 | 2.6 | 0.00 | 0.00 | 0.00 | 57 | 1010.4 |
| 20260902011935 | 88 | 119 | 0.9 | 3.5 | 0.00 | 0.00 | 0.00 | 56 | 1010.4 |
| 20260902011435 | 89 | 126 | 1.7 | 3.5 | 0.00 | 0.00 | 0.00 | 56 | 1010.3 |
| 20260902010935 | 89 | 111 | 1.7 | 4.3 | 0.00 | 0.00 | 0.00 | 54 | 1010.4 |
| 20260902010434 | 90 | 123 | 1.7 | 5.2 | 0.00 | 0.00 | 0.00 | 53 | 1010.3 |
| 20260902005934 | 90 | 126 | 2.6 | 5.2 | 0.00 | 0.00 | 0.00 | 52 | 1010.3 |
| 20260902005435 | 90 | 178 | 2.6 | 6.1 | 0.00 | 0.00 | 0.00 | 52 | 1010.2 |
| 20260902004934 | 91 | 173 | 3.5 | 7.0 | 0.00 | 0.00 | 0.00 | 52 | 1010.2 |
| 20260902003934 | 91 | 183 | 3.5 | 7.0 | 0.00 | 0.00 | 0.00 | 51 | 1010.2 |
| 20260902003433 | 91 | 168 | 3.5 | 6.1 | 0.00 | 0.00 | 0.00 | 51 | 1010.0 |
| 20260902002433 | 92 | 198 | 2.6 | 5.2 | 0.00 | 0.00 | 0.00 | 50 | 1009.9 |
| 20260902001933 | 92 | 162 | 1.7 | 5.2 | 0.00 | 0.00 | 0.00 | 50 | 1010.2 |
| 20260902001433 | 92 | 178 | 2.6 | 6.1 | 0.00 | 0.00 | 0.00 | 50 | 1010.0 |
| 20260902000932 | 93 | 214 | 1.7 | 6.1 | 0.00 | 0.00 | 0.00 | 50 | 1010.2 |
| 20260902000432 | 93 | 200 | 3.5 | 6.1 | 0.00 | 0.00 | 0.00 | 49 | 1010.2 |
| 20260901235932 | 93 | 221 | 3.5 | 8.7 | 0.00 | 0.00 | 0.00 | 49 | 1010.3 |
| 20260901235432 | 94 | 196 | 4.3 | 8.7 | 0.00 | 0.00 | 0.00 | 49 | 1010.4 |
| 20260901234431 | 94 | 200 | 3.5 | 10.4 | 0.00 | 0.00 | 0.00 | 49 | 1010.4 |
| 20260901233431 | 94 | 156 | 4.3 | 8.7 | 0.00 | 0.00 | 0.00 | 49 | 1010.5 |
| 20260901232930 | 94 | 163 | 5.2 | 8.7 | 0.00 | 0.00 | 0.00 | 49 | 1010.4 |
| 20260901232430 | 94 | 195 | 4.3 | 7.8 | 0.00 | 0.00 | 0.00 | 50 | 1010.6 |
| 20260901231931 | 94 | 208 | 2.6 | 8.7 | 0.00 | 0.00 | 0.00 | 51 | 1010.5 |
| 20260901225930 | 94 | 232 | 6.1 | 12.2 | 0.00 | 0.00 | 0.00 | 50 | 1010.7 |
| 20260901224927 | 95 | 234 | 6.1 | 10.4 | 0.00 | 0.00 | 0.00 | 50 | 1010.8 |
| 20260901224428 | 95 | 187 | 3.5 | 9.6 | 0.00 | 0.00 | 0.00 | 51 | 1010.7 |
| 20260901223927 | 95 | 203 | 3.5 | 9.6 | 0.00 | 0.00 | 0.00 | 50 | 1010.8 |
| 20260901223428 | 95 | 196 | 5.2 | 12.2 | 0.00 | 0.00 | 0.00 | 49 | 1010.8 |
| 20260901222427 | 95 | 257 | 5.2 | 13.9 | 0.00 | 0.00 | 0.00 | 50 | 1010.8 |
| 20260901221427 | 95 | 196 | 6.1 | 12.2 | 0.00 | 0.00 | 0.00 | 49 | 1010.9 |
| 20260901220926 | 95 | 215 | 5.2 | 9.6 | 0.00 | 0.00 | 0.00 | 51 | 1011.0 |
| 20260901220424 | 94 | 193 | 4.3 | 13.0 | 0.00 | 0.00 | 0.00 | 51 | 1011.0 |
| 20260901215924 | 94 | 203 | 6.1 | 13.9 | 0.00 | 0.00 | 0.00 | 49 | 1011.0 |
| 20260901215425 | 94 | 170 | 5.2 | 13.0 | 0.00 | 0.00 | 0.00 | 51 | 1011.0 |
| 20260901214924 | 94 | 203 | 6.1 | 13.0 | 0.00 | 0.00 | 0.00 | 51 | 1010.9 |
| 20260901214423 | 94 | 188 | 7.0 | 12.2 | 0.00 | 0.00 | 0.00 | 51 | 1011.1 |
| 20260901213924 | 94 | 227 | 5.2 | 11.3 | 0.00 | 0.00 | 0.00 | 51 | 1011.1 |
| 20260901213424 | 94 | 171 | 5.2 | 9.6 | 0.00 | 0.00 | 0.00 | 51 | 1011.0 |
| 20260901212423 | 94 | 203 | 4.3 | 12.2 | 0.00 | 0.00 | 0.00 | 51 | 1011.2 |
| 20260901211923 | 94 | 210 | 7.0 | 12.2 | 0.00 | 0.00 | 0.00 | 51 | 1011.3 |
| 20260901211424 | 94 | 262 | 6.1 | 11.3 | 0.00 | 0.00 | 0.00 | 52 | 1011.3 |
| 20260901210423 | 94 | 194 | 3.5 | 9.6 | 0.00 | 0.00 | 0.00 | 53 | 1011.2 |
| 20260901205923 | 94 | 189 | 4.3 | 9.6 | 0.00 | 0.00 | 0.00 | 54 | 1011.3 |
| 20260901205425 | 94 | 201 | 5.2 | 14.8 | 0.00 | 0.00 | 0.00 | 52 | 1011.4 |
| 20260901204923 | 94 | 200 | 8.7 | 14.8 | 0.00 | 0.00 | 0.00 | 51 | 1011.5 |
| 20260901204423 | 94 | 196 | 6.1 | 10.4 | 0.00 | 0.00 | 0.00 | 51 | 1011.4 |
| 20260901203422 | 93 | 211 | 4.3 | 11.3 | 0.00 | 0.00 | 0.00 | 52 | 1011.5 |
| 20260901202922 | 93 | 162 | 5.2 | 12.2 | 0.00 | 0.00 | 0.00 | 52 | 1011.6 |
| 20260901202422 | 93 | 214 | 5.2 | 12.2 | 0.00 | 0.00 | 0.00 | 52 | 1011.6 |
| 20260901201922 | 94 | 200 | 4.3 | 10.4 | 0.00 | 0.00 | 0.00 | 53 | 1011.7 |
| 20260901200921 | 93 | 210 | 2.6 | 10.4 | 0.00 | 0.00 | 0.00 | 55 | 1011.7 |
| 20260901200422 | 93 | 198 | 4.3 | 12.2 | 0.00 | 0.00 | 0.00 | 53 | 1011.7 |
| 20260901195921 | 93 | 187 | 4.3 | 12.2 | 0.00 | 0.00 | 0.00 | 51 | 1011.8 |
| 20260901195422 | 93 | 226 | 6.1 | 10.4 | 0.00 | 0.00 | 0.00 | 51 | 1011.9 |
| 20260901194921 | 93 | 162 | 4.3 | 10.4 | 0.00 | 0.00 | 0.00 | 53 | 1011.9 |
| 20260901194421 | 93 | 123 | 3.5 | 9.6 | 0.00 | 0.00 | 0.00 | 53 | 1011.9 |
| 20260901193421 | 93 | 202 | 3.5 | 11.3 | 0.00 | 0.00 | 0.00 | 50 | 1012.0 |
| 20260901192920 | 93 | 123 | 5.2 | 11.3 | 0.00 | 0.00 | 0.00 | 50 | 1012.1 |
| 20260901192420 | 93 | 129 | 4.3 | 8.7 | 0.00 | 0.00 | 0.00 | 50 | 1012.2 |
| 20260901191920 | 93 | 202 | 5.2 | 8.7 | 0.00 | 0.00 | 0.00 | 52 | 1012.3 |
| 20260901191419 | 93 | 191 | 3.5 | 8.7 | 0.00 | 0.00 | 0.00 | 50 | 1012.3 |
| 20260901190920 | 92 | 123 | 3.5 | 10.4 | 0.00 | 0.00 | 0.00 | 52 | 1012.4 |
| 20260901190419 | 92 | 115 | 6.1 | 10.4 | 0.00 | 0.00 | 0.00 | 51 | 1012.3 |
| 20260901185919 | 92 | 205 | 4.3 | 8.7 | 0.00 | 0.00 | 0.00 | 51 | 1012.4 |
| 20260901185420 | 92 | 158 | 3.5 | 8.7 | 0.00 | 0.00 | 0.00 | 53 | 1012.5 |
| 20260901184919 | 92 | 184 | 2.6 | 7.0 | 0.00 | 0.00 | 0.00 | 52 | 1012.5 |
| 20260901183918 | 92 | 93 | 3.5 | 7.8 | 0.00 | 0.00 | 0.00 | 51 | 1012.6 |
| 20260901182919 | 91 | 137 | 3.5 | 8.7 | 0.00 | 0.00 | 0.00 | 53 | 1012.7 |
| 20260901182418 | 91 | 208 | 3.5 | 9.6 | 0.00 | 0.00 | 0.00 | 51 | 1012.7 |
| 20260901181918 | 92 | 189 | 4.3 | 9.6 | 0.00 | 0.00 | 0.00 | 53 | 1012.7 |
| 20260901181418 | 92 | 173 | 3.5 | 7.8 | 0.00 | 0.00 | 0.00 | 52 | 1012.9 |
| 20260901180918 | 91 | 259 | 3.5 | 8.7 | 0.00 | 0.00 | 0.00 | 56 | 1012.8 |
| 20260901180417 | 91 | 140 | 3.5 | 8.7 | 0.00 | 0.00 | 0.00 | 53 | 1012.9 |
| 20260901175917 | 91 | 221 | 3.5 | 7.8 | 0.00 | 0.00 | 0.00 | 52 | 1012.9 |
| 20260901174416 | 91 | 227 | 2.6 | 6.1 | 0.00 | 0.00 | 0.00 | 52 | 1013.1 |
| 20260901173916 | 91 | 151 | 3.5 | 7.0 | 0.00 | 0.00 | 0.00 | 52 | 1013.0 |
| 20260901173416 | 90 | 129 | 3.5 | 7.0 | 0.00 | 0.00 | 0.00 | 55 | 1013.0 |
| 20260901172917 | 90 | 234 | 2.6 | 7.0 | 0.00 | 0.00 | 0.00 | 53 | 1013.1 |
| 20260901172416 | 90 | 160 | 3.5 | 7.8 | 0.00 | 0.00 | 0.00 | 53 | 1013.1 |
| 20260901171916 | 90 | 196 | 3.5 | 7.8 | 0.00 | 0.00 | 0.00 | 53 | 1013.3 |
| 20260901171416 | 90 | 167 | 3.5 | 6.1 | 0.00 | 0.00 | 0.00 | 53 | 1013.1 |
| 20260901170916 | 90 | 153 | 3.5 | 7.0 | 0.00 | 0.00 | 0.00 | 53 | 1013.1 |
| 20260901170416 | 89 | 188 | 2.6 | 7.0 | 0.00 | 0.00 | 0.00 | 51 | 1013.3 |
| 20260901165915 | 89 | 126 | 1.7 | 6.1 | 0.00 | 0.00 | 0.00 | 53 | 1013.4 |
| 20260901165417 | 89 | 230 | 2.6 | 6.1 | 0.00 | 0.00 | 0.00 | 54 | 1013.4 |
| 20260901164915 | 89 | 178 | 3.5 | 8.7 | 0.00 | 0.00 | 0.00 | 53 | 1013.5 |
| 20260901164415 | 89 | 170 | 1.7 | 8.7 | 0.00 | 0.00 | 0.00 | 53 | 1013.4 |
| 20260901163415 | 89 | 185 | 3.5 | 5.2 | 0.00 | 0.00 | 0.00 | 53 | 1013.4 |
| 20260901162914 | 89 | 137 | 1.7 | 7.0 | 0.00 | 0.00 | 0.00 | 54 | 1013.5 |
| 20260901162415 | 88 | 101 | 3.5 | 7.0 | 0.00 | 0.00 | 0.00 | 53 | 1013.4 |
| 20260901161415 | 88 | 225 | 2.6 | 5.2 | 0.00 | 0.00 | 0.00 | 56 | 1013.6 |
| 20260901160914 | 88 | 230 | 1.7 | 7.8 | 0.00 | 0.00 | 0.00 | 55 | 1013.5 |
| 20260901160414 | 88 | 162 | 2.6 | 7.8 | 0.00 | 0.00 | 0.00 | 53 | 1013.5 |
| 20260901155914 | 87 | 265 | 1.7 | 5.2 | 0.00 | 0.00 | 0.00 | 60 | 1013.4 |
| 20260901155415 | 87 | 254 | 2.6 | 5.2 | 0.00 | 0.00 | 0.00 | 55 | 1013.3 |
| 20260901154913 | 87 | 190 | 2.6 | 4.3 | 0.00 | 0.00 | 0.00 | 60 | 1013.3 |
| 20260901153913 | 86 | 221 | 1.7 | 4.3 | 0.00 | 0.00 | 0.00 | 57 | 1013.4 |
| 20260901153413 | 86 | 194 | 1.7 | 4.3 | 0.00 | 0.00 | 0.00 | 56 | 1013.4 |
| 20260901152413 | 85 | 167 | 1.7 | 4.3 | 0.00 | 0.00 | 0.00 | 58 | 1013.3 |
| 20260901150912 | 85 | 196 | 1.7 | 5.2 | 0.00 | 0.00 | 0.00 | 63 | 1013.4 |
| 20260901150412 | 84 | 234 | 1.7 | 6.1 | 0.00 | 0.00 | 0.00 | 62 | 1013.4 |
| 20260901145413 | 84 | 238 | 2.6 | 6.1 | 0.00 | 0.00 | 0.00 | 63 | 1013.5 |
| 20260901144912 | 84 | 245 | 3.5 | 6.1 | 0.00 | 0.00 | 0.00 | 64 | 1013.5 |
| 20260901144411 | 83 | 196 | 2.6 | 6.1 | 0.00 | 0.00 | 0.00 | 63 | 1013.6 |
| 20260901143412 | 83 | 193 | 1.7 | 4.3 | 0.00 | 0.00 | 0.00 | 65 | 1013.6 |
| 20260901142911 | 83 | 168 | 1.7 | 4.3 | 0.00 | 0.00 | 0.00 | 66 | 1013.7 |
| 20260901142411 | 83 | 153 | 2.6 | 4.3 | 0.00 | 0.00 | 0.00 | 69 | 1013.6 |
| 20260901141911 | 82 | 167 | 1.7 | 4.3 | 0.00 | 0.00 | 0.00 | 70 | 1013.7 |
| 20260901141411 | 82 | 146 | 1.7 | 4.3 | 0.00 | 0.00 | 0.00 | 71 | 1013.8 |
| 20260901140911 | 81 | 165 | 1.7 | 4.3 | 0.00 | 0.00 | 0.00 | 72 | 1013.8 |
| 20260901135410 | 80 | 137 | 1.7 | 4.3 | 0.00 | 0.00 | 0.00 | 75 | 1013.9 |
| 20260901134908 | 79 | 178 | 1.7 | 3.5 | 0.00 | 0.00 | 0.00 | 77 | 1013.9 |
| 20260901134409 | 79 | 186 | 1.7 | 2.6 | 0.00 | 0.00 | 0.00 | 78 | 1013.8 |
| 20260901133909 | 78 | 188 | 1.7 | 3.5 | 0.00 | 0.00 | 0.00 | 80 | 1013.7 |
| 20260901133408 | 78 | 126 | 0.9 | 3.5 | 0.00 | 0.00 | 0.00 | 82 | 1013.7 |
| 20260901131907 | 76 | 137 | 0.9 | 2.6 | 0.00 | 0.00 | 0.00 | 88 | 1013.7 |
| 20260901131406 | 75 | 146 | 0.9 | 2.6 | 0.00 | 0.00 | 0.00 | 88 | 1013.8 |
| 20260901130407 | 74 | 265 | 0.0 | 1.7 | 0.00 | 0.00 | 0.00 | 88 | 1013.8 |
| 20260901125405 | 74 | 93 | 1.7 | 2.6 | 0.00 | 0.00 | 0.00 | 89 | 1013.7 |
| 20260901124906 | 73 | 126 | 0.9 | 1.7 | 0.00 | 0.00 | 0.00 | 89 | 1013.6 |
| 20260901124406 | 73 | 51 | 0.0 | 1.7 | 0.00 | 0.00 | 0.00 | 89 | 1013.7 |
| 20260901123905 | 73 | 68 | 0.0 | 1.7 | 0.00 | 0.00 | 0.00 | 89 | 1013.6 |
| 20260901123405 | 73 | 126 | 0.0 | 1.7 | 0.00 | 0.00 | 0.00 | 89 | 1013.5 |
| 20260901122905 | 73 | 61 | 0.9 | 1.7 | 0.00 | 0.00 | 0.00 | 89 | 1013.5 |
| 20260901122404 | 73 | 334 | 0.9 | 1.7 | 0.00 | 0.00 | 0.00 | 89 | 1013.3 |
| 20260901121906 | 73 | 247 | 0.0 | 1.7 | 0.00 | 0.00 | 0.00 | 89 | 1013.0 |
| 20260901121404 | 72 | 51 | 0.9 | 1.7 | 0.00 | 0.00 | 0.00 | 89 | 1013.0 |
| 20260901120904 | 72 | 93 | 0.0 | 2.6 | 0.00 | 0.00 | 0.00 | 89 | 1012.9 |